Other Public Products
Issued by NWS Grand Forks, ND

Home | Current Version | Previous Version | Graphics & Text | Print | Product List | Glossary On
Versions: 1 2 3 4 5 6 7 8 9 10 11 12 13 14 15 16 17 18 19 20 21 22 23 24 25 26 27 28 29 30 31 32 33 34 35 36 37 38 39 40 41 42 43 44 45 46 47 48 49 50
511
FPUS83 KFGF 251331
OPUFGF
PRAIRIE TO PINES WEATHER ROUNDUP
NATIONAL WEATHER SERVICE EASTERN NORTH DAKOTA/GRAND FORKS ND
800 AM CDT MON SEP 25 2017

 **SATELLITE DATA USED TO AUGMENT SKY COVER AT AUTOMATED STATIONS**
 *****  WEATHER ACROSS EASTERN NORTH DAKOTA  *****

CITY           SKY/WX    TMP DP  RH WIND       PRES   REMARKS
GRAND FORKS    CLOUDY    49  47  93 N10       30.12R
GRAND FORKS AF CLOUDY    48  46  93 N6        30.15R
GRAND CITY NWS NOT AVBL
BUXTON           N/A     48  47  97 NW9         N/A
DEVILS LAKE    CLOUDY    46  42  86 N6        30.16R
FARGO          CLOUDY    49  47  93 N14       30.10R
WAHPETON ARPT  CLOUDY    50  45  81 N13       30.10F
$$

 *****  WEATHER ACROSS CENTRAL AND WESTERN NORTH DAKOTA  *****

CITY           SKY/WX    TMP DP  RH WIND       PRES   REMARKS
JAMESTOWN      CLOUDY    48  43  82 NW9       30.13R
BISMARCK       CLOUDY    48  45  89 CALM      30.17R
MINOT          CLOUDY    47  44  90 N3        30.15R
MINOT AFB      CLOUDY    46  44  92 NE5       30.14R
GARRISON         N/A     45  44  97 N3        30.16R
WILLISTON      CLOUDY    46  44  93 CALM      30.16S
DICKINSON      LGT RAIN  43  42  97 CALM      30.15R FOG
HETTINGER      CLOUDY    43  39  86 VRB3      30.15F
$$

 *****  OTHER OBSERVATIONS NORTHEAST NORTH DAKOTA  *****

CITY           SKY/WX    TMP DP  RH WIND       PRES   REMARKS
WALHALLA       FAIR     N/A N/A N/A NW6       30.15R
LANGDON        NOT AVBL
CAVALIER       FAIR      46  45  93 N6        30.14R
GRAFTON        NOT AVBL
CANDO          CLOUDY    46  46 100 N5        30.18R
FORT TOTTEN      N/A     47  42  82 N2        29.95S
ROLLA          CLOUDY    36  36 100 CALM      30.17R
RUGBY          NOT AVBL
 ***** THE ABOVE OBSERVATIONS ARE NON NWS ARE NOT QUALITY
        CONTROLLED AND MAY MIS-REPORT RAIN FOR SNOW...
$$

 *****  OTHER OBSERVATIONS SOUTHEAST NORTH DAKOTA *****

CITY           SKY/WX    TMP DP  RH WIND       PRES   REMARKS
COOPERSTOWN    CLOUDY    48  46  93 N10       30.13S
VALLEY CITY    NOT AVBL
OAKES          NOT AVBL
GWINNER        PTSUNNY   50  48  93 N7        30.12R
SHEYENNE NWR     N/A     50  49  98 N5        29.95S
BUFFALO          N/A     48  45  89 SW9         N/A
WYNDMERE       NOT AVBL
 ***** THE ABOVE OBSERVATIONS ARE NON NWS ARE NOT QUALITY
       CONTROLLED AND MAY MIS-REPORT RAIN FOR SNOW...
$$

  *****  WEATHER ACROSS NORTHERN MINNESOTA  *****

CITY           SKY/WX    TMP DP  RH WIND       PRES   REMARKS
FLAG ISLAND    CLOUDY    48  46  93 N8        30.07R FOG
WARROAD        MOCLDY    45  41  87 NW5       30.10R
ROSEAU         CLOUDY    46  43  87 NW9       30.11R
HALLOCK        CLOUDY    48  46  93 N9        30.13R
THF RVR FALLS  CLOUDY    47  46  97 N9        30.10R
HALSTAD          N/A     49  46  92 N10         N/A
FOSSTON        CLOUDY    46  45  93 NW13      30.09S
BAUDETTE       CLOUDY    49  49 100 NW13G20   30.06R
WASKISH        CLOUDY    48  46  93 NW9       30.06S
CROOKSTON      CLOUDY    48  46  93 N14       30.11S
$$
  *****  WEATHER ACROSS CENTRAL AND WEST MINNESOTA  *****

CITY           SKY/WX    TMP DP  RH WIND       PRES   REMARKS
BEMIDJI        DRIZZLE   47  46  99 NW10      30.07R
PARK RAPIDS    CLOUDY    50  47  89 N7        30.06S FOG
WADENA         MOCLDY    48  48 100 NW6       30.06S
DETROIT LAKES  CLOUDY    46  46 100 N5        30.09R FOG
MOORHEAD       CLOUDY    48  46  93 N6        30.11R
FERGUS FALLS   CLOUDY    48  48 100 N10       30.08F
ELBOW LAKE     CLOUDY    49  47  94 NW12G17   30.06F
MORRIS MN      FAIR      52  48  87 N12       30.04F
STAPLES        DRIZZLE   48  48 100 N6        30.04F
WHEATON        CLOUDY    50  46  87 NW14      30.10S
$$
  *****  WEATHER ELSEWHERE ACROSS MINNESOTA  *****

CITY           SKY/WX    TMP DP  RH WIND       PRES   REMARKS
DULUTH         LGT RAIN  53  52  96 NW9       30.00R
INTRNTL FALLS  CLOUDY    50  48  93 NW8       30.03R
ELY            FAIR      52  50  93 W5        30.00R
CLOQUET        CLOUDY    54  50  87 NW9       30.00S
BRAINERD       RAIN      50  49  96 NW9       30.04R FOG
HIBBING        CLOUDY    50  48  93 NW9       30.01S
ALEXANDRIA     MOCLDY    51  48  89 NW9       30.06S
SAINT CLOUD    LGT RAIN  52  52 100 NW8       30.03R
MINNEAPOLIS    CLOUDY    60  59  96 NW6       29.99S
$$

  *****  WEATHER ACROSS SOUTH DAKOTA  *****

CITY           SKY/WX    TMP DP  RH WIND       PRES   REMARKS
SIOUX FALLS    CLOUDY    53  52  96 N8        30.02R
BROOKINGS      LGT RAIN  49  48  97 N12       30.05R
WATERTOWN      CLOUDY    48  47  96 N13       30.07R
HURON          CLOUDY    50  47  89 N12       30.08S
SISSETON         N/A     50  48  93 N9        30.08F
ABERDEEN       CLOUDY    49  47  93 N7        30.12R
MITCHELL       CLOUDY    50  49  96 N13       30.06R
PIERRE         CLOUDY    47  44  90 NE7       30.11F
MOBRIDGE       CLOUDY    50  47  89 N5        30.12S
RAPID CITY     CLOUDY    45  43  93 NE3       30.13S
$$

  *****  SOME WEATHER IN NEARBY STATES *****

CITY           SKY/WX    TMP DP  RH WIND       PRES   REMARKS
GLASGOW MT     CLOUDY    39  37  92 E9        30.12R
GREAT FALLS MT FAIR      40  30  67 S12       30.04S
CHEYENNE WY    CLOUDY    37  36  96 W7        30.11S FOG
SCOTTSBLUFF NE CLOUDY    44  40  85 N6        30.13R
OMAHA NE       CLOUDY    59  56  89 N14       29.96S
DES MOINES IA  MOCLDY    68  64  87 S3        29.94R
DAVENPORT IA   FAIR      68  63  84 SE5       30.00R
CHICAGO IL     FAIR      72  58  61 SW5       30.01S
EAU CLAIRE WI  FAIR      64  63  96 CALM      29.96R FOG
LA CROSSE WI   FAIR      70  64  81 SE5       29.95R
$$

  *****  SOME NATIONAL WEATHER *****

CITY           SKY/WX    TMP DP  RH WIND       PRES   REMARKS
LA GUARDIA NY  FAIR      76  66  71 NE6       30.07R
RALEIGH NC     PTSUNNY   68  63  84 N7        30.02R
ATLANTA GA     FAIR      74  63  68 NE12G18   30.04R
NEW ORLEANS LA FAIR      79  72  79 NE7       29.92S
OKLAHOMA CITY  MOCLDY    68  65  90 S6        29.92S
ALBUQUERQUE NM FAIR      52  22  30 NE6       29.99S
SALT LAKE CITY FAIR      43  40  89 SE6       30.12R
LOS ANGELES CA FAIR      60  46  59 CALM      29.84R
BOISE ID       FAIR      42  33  70 SE8       30.09R
SEATTLE WA     CLOUDY    57  52  83 CALM      30.10S
$$

*** WEATHER ACROSS MANITOBA...SASKATCHEWAN AND ONTARIO ***
                ***ONTARIO***

CITY           SKY/WX    TMP DP  RH WIND       PRES   REMARKS
GERALDTON      CLOUDY    66  63  88 W7        29.86R
THUNDER BAY    LGT RAIN  64  61  88 W10       29.91R
SIOUX LOOKOUT  LGT RAIN  48  48 100 N7        30.00R FOG
TORONTO        PTSUNNY   77  66  69 NE2       30.10R
BIG TROUT LK   CLOUDY    43 N/A N/A N9        30.03R
PICKLE LAKE    DRIZZLE   46  46 100 VRB8      29.98R FOG
DRYDEN         MOCLDY    48  46  93 N6        30.03
KENORA         DRIZZLE   46  46 100 N5        30.07R FOG
$$
                *** MANITOBA***

CITY           SKY/WX    TMP DP  RH WIND       PRES   REMARKS
BRANDON        MOCLDY    43  41  93 N6        30.17R
DAUPHIN        CLOUDY    45  45 100 SW5       30.17R
ISLAND LAKE    CLOUDY    41  41 100 N8        30.14  FOG
PILOT MOUND      N/A     45  41  87 NW3         N/A
THE PAS        PTCLDY    36  34  93 SE7       30.15R
THOMPSON       MOCLDY    28  28 100 NE2       30.19R
WINNIPEG       MOCLDY    46  45  93 NW9       30.13R
LYNN LAKE      CLOUDY    37  37 100 S3        30.12S
CHURCHILL      MOCLDY    39  32  75 W7        30.18R
GILLAM         MOCLDY    37  32  81 N8        30.19R
$$
                ***SASKATCHEWAN***

CITY           SKY/WX    TMP DP  RH WIND       PRES   REMARKS
ESTEVAN        MOCLDY    37  37 100 E2        30.16R
KINDERSLEY     PTCLDY    36  30  80 S3        30.01R
LLOYDMINSTER   CLOUDY    46  36  66 S10       29.94S
PRINCE ALBERT  MOCLDY    41  36  81 CALM      30.07S
REGINA         CLOUDY    45  37  76 VRB6      30.12R
YORKTON        CLOUDY    43  41  93 S3        30.14S



USA.gov is the U.S. government's official web portal to all federal, state and local government web resources and services.